Time,TemperatureF,DewpointF,PressureIn,WindDirection,WindDirectionDegrees,WindSpeedMPH,WindSpeedGustMPH,Humidity,HourlyPrecipIn,Conditions,Clouds,dailyrainin,SoftwareType,DateUTC
2013-08-10 00:13:00,55.0,-99.9,30.00,NE,56,3.0,4.0,-999,-99.99,,,-99.99,,2013-08-10 07:13:00,
2013-08-10 00:22:00,56.0,-99.9,30.01,NW,320,1.0,4.0,-999,-99.99,,,-99.99,,2013-08-10 07:22:00,
2013-08-10 00:43:00,56.0,-99.9,30.01,ENE,69,2.0,4.0,-999,-99.99,,,-99.99,,2013-08-10 07:43:00,
2013-08-10 01:02:00,56.0,-99.9,30.02,ENE,75,2.0,6.0,-999,-99.99,,,-99.99,,2013-08-10 08:02:00,
2013-08-10 01:32:00,56.0,-99.9,30.02,NE,51,2.0,5.0,-999,-99.99,,,-99.99,,2013-08-10 08:32:00,
2013-08-10 01:43:00,56.0,-99.9,30.02,NNE,33,2.0,5.0,-999,-99.99,,,-99.99,,2013-08-10 08:43:00,
2013-08-10 02:02:00,55.0,-99.9,30.01,SSW,198,1.0,3.0,-999,-99.99,,,-99.99,,2013-08-10 09:02:00,
2013-08-10 02:32:00,55.0,-99.9,30.01,ENE,78,2.0,4.0,-999,-99.99,,,-99.99,,2013-08-10 09:32:00,
2013-08-10 03:02:00,56.0,-99.9,30.00,East,80,2.0,3.0,-999,-99.99,,,-99.99,,2013-08-10 10:02:00,
2013-08-10 03:22:00,56.0,-99.9,30.00,NE,43,0.0,4.0,-999,-99.99,,,-99.99,,2013-08-10 10:22:00,
2013-08-10 05:01:00,55.0,-99.9,30.01,SSE,152,0.0,3.0,-999,-99.99,,,-99.99,,2013-08-10 12:01:00,
2013-08-10 06:01:00,54.0,-99.9,30.01,NE,56,2.0,4.0,-999,-99.99,,,-99.99,,2013-08-10 13:01:00,
2013-08-10 06:11:00,53.0,-99.9,30.01,ENE,75,2.0,4.0,-999,-99.99,,,-99.99,,2013-08-10 13:11:00,
2013-08-10 06:22:00,53.0,-99.9,30.01,East,80,2.0,4.0,-999,-99.99,,,-99.99,,2013-08-10 13:22:00,
2013-08-10 06:43:00,53.0,-99.9,30.01,ENE,73,2.0,4.0,-999,-99.99,,,-99.99,,2013-08-10 13:43:00,
2013-08-10 07:02:00,53.0,-99.9,30.01,ENE,74,2.0,4.0,-999,-99.99,,,-99.99,,2013-08-10 14:02:00,
2013-08-10 08:02:00,53.0,-99.9,30.02,East,79,2.0,4.0,-999,-99.99,,,-99.99,,2013-08-10 15:02:00,
2013-08-10 08:34:00,55.0,-99.9,30.03,West,270,1.0,2.0,-999,-99.99,,,-99.99,,2013-08-10 15:34:00,
2013-08-10 08:43:00,55.0,-99.9,30.03,West,274,4.0,5.0,-999,-99.99,,,-99.99,,2013-08-10 15:43:00,
2013-08-10 09:02:00,56.0,-99.9,30.04,West,277,5.0,8.0,-999,-99.99,,,-99.99,,2013-08-10 16:02:00,
2013-08-10 09:22:00,56.0,-99.9,30.04,WNW,282,6.0,9.0,-999,-99.99,,,-99.99,,2013-08-10 16:22:00,
2013-08-10 09:43:00,57.0,-99.9,30.04,West,277,7.0,11.0,-999,-99.99,,,-99.99,,2013-08-10 16:43:00,
2013-08-10 10:22:00,56.0,-99.9,30.04,West,277,9.0,13.0,-999,-99.99,,,-99.99,,2013-08-10 17:22:00,
2013-08-10 10:43:00,56.0,-99.9,30.05,WNW,282,10.0,13.0,-999,-99.99,,,-99.99,,2013-08-10 17:43:00,
2013-08-10 11:01:00,57.0,-99.9,30.05,WNW,282,9.0,12.0,-999,-99.99,,,-99.99,,2013-08-10 18:01:00,
2013-08-10 11:44:00,55.0,-99.9,30.06,West,276,11.0,13.0,-999,-99.99,,,-99.99,,2013-08-10 18:44:00,
2013-08-10 12:02:00,55.0,-99.9,30.06,West,273,10.0,12.0,-999,-99.99,,,-99.99,,2013-08-10 19:02:00,
2013-08-10 12:22:00,55.0,-99.9,30.06,West,276,10.0,12.0,-999,-99.99,,,-99.99,,2013-08-10 19:22:00,
2013-08-10 12:44:00,54.0,-99.9,30.07,West,263,10.0,11.0,-999,-99.99,,,-99.99,,2013-08-10 19:44:00,
2013-08-10 14:02:00,56.0,-99.9,30.07,West,275,10.0,13.0,-999,-99.99,,,-99.99,,2013-08-10 21:02:00,
2013-08-10 14:22:00,56.0,-99.9,30.07,West,272,10.0,13.0,-999,-99.99,,,-99.99,,2013-08-10 21:22:00,
2013-08-10 14:43:00,57.0,-99.9,30.07,West,275,10.0,11.0,-999,-99.99,,,-99.99,,2013-08-10 21:43:00,
2013-08-10 15:21:00,57.0,-99.9,30.06,West,273,11.0,12.0,-999,-99.99,,,-99.99,,2013-08-10 22:21:00,
2013-08-10 15:43:00,58.0,-99.9,30.06,West,275,10.0,12.0,-999,-99.99,,,-99.99,,2013-08-10 22:43:00,
2013-08-10 16:02:00,58.0,-99.9,30.06,West,279,10.0,12.0,-999,-99.99,,,-99.99,,2013-08-10 23:02:00,
2013-08-10 16:53:00,60.0,-99.9,30.06,WNW,294,8.0,11.0,-999,-99.99,,,-99.99,,2013-08-10 23:53:00,
2013-08-10 17:32:00,60.0,-99.9,30.06,WNW,291,5.0,13.0,-999,-99.99,,,-99.99,,2013-08-11 00:32:00,
2013-08-10 18:02:00,59.0,-99.9,30.05,WNW,289,7.0,11.0,-999,-99.99,,,-99.99,,2013-08-11 01:02:00,
2013-08-10 18:12:00,59.0,-99.9,30.05,WNW,292,8.0,12.0,-999,-99.99,,,-99.99,,2013-08-11 01:12:00,
2013-08-10 18:32:00,59.0,-99.9,30.05,WNW,289,4.0,11.0,-999,-99.99,,,-99.99,,2013-08-11 01:32:00,
2013-08-10 18:43:00,59.0,-99.9,30.05,WNW,289,4.0,9.0,-999,-99.99,,,-99.99,,2013-08-11 01:43:00,
2013-08-10 18:54:00,59.0,-99.9,30.05,WNW,301,6.0,10.0,-999,-99.99,,,-99.99,,2013-08-11 01:54:00,
2013-08-10 19:02:00,59.0,-99.9,30.04,WNW,297,7.0,11.0,-999,-99.99,,,-99.99,,2013-08-11 02:02:00,
2013-08-10 19:32:00,59.0,-99.9,30.04,WNW,296,6.0,10.0,-999,-99.99,,,-99.99,,2013-08-11 02:32:00,
2013-08-10 19:43:00,58.0,-99.9,30.04,WNW,298,4.0,10.0,-999,-99.99,,,-99.99,,2013-08-11 02:43:00,
2013-08-10 20:07:00,58.0,-99.9,30.04,WNW,297,3.0,8.0,-999,-99.99,,,-99.99,,2013-08-11 03:07:00,
2013-08-10 20:36:00,58.0,-99.9,30.03,WNW,301,4.0,8.0,-999,-99.99,,,-99.99,,2013-08-11 03:36:00,
2013-08-10 21:43:00,57.0,-99.9,30.04,WNW,294,4.0,7.0,-999,-99.99,,,-99.99,,2013-08-11 04:43:00,
2013-08-10 22:02:00,57.0,-99.9,30.04,WNW,299,4.0,7.0,-999,-99.99,,,-99.99,,2013-08-11 05:02:00,
2013-08-10 22:21:00,57.0,-99.9,30.05,West,277,3.0,7.0,-999,-99.99,,,-99.99,,2013-08-11 05:21:00,
2013-08-10 22:38:00,57.0,-99.9,30.05,WNW,286,3.0,6.0,-999,-99.99,,,-99.99,,2013-08-11 05:38:00,
2013-08-10 22:51:00,57.0,-99.9,30.05,WNW,292,5.0,6.0,-999,-99.99,,,-99.99,,2013-08-11 05:51:00,
2013-08-10 22:58:00,56.0,-99.9,30.05,WNW,290,5.0,7.0,-999,-99.99,,,-99.99,,2013-08-11 05:58:00,
2013-08-10 23:05:00,56.0,-99.9,30.05,WNW,299,4.0,7.0,-999,-99.99,,,-99.99,,2013-08-11 06:05:00,
2013-08-10 23:27:00,56.0,-99.9,30.04,WNW,290,4.0,6.0,-999,-99.99,,,-99.99,,2013-08-11 06:27:00,
2013-08-10 23:49:00,56.0,-99.9,30.04,WNW,292,5.0,9.0,-999,-99.99,,,-99.99,,2013-08-11 06:49:00,
2013-08-10 23:58:00,56.0,-99.9,30.04,WNW,301,4.0,8.0,-999,-99.99,,,-99.99,,2013-08-11 06:58:00,